Wind_Speed
32 31 33 34 34 35 37 38 39 41 41 42 42 43 46 49 51 54 57 61 65 68 72 76 79 78 78 80 80 83 88 94 99 99 105 110 116 119 119 115 109 105 101
33 33 34 34 34 35 37 37 39 41 41 42 44 46 49 52 55 58 61 64 67 71 76 78 77 78 79 80 83 89 95 102 108 110 112 115 110 101 94 89 82 78 76
35 35 35 35 34 35 36 38 39 40 41 44 46 49 52 55 57 59 61 66 72 76 76 76 77 78 80 85 89 96 103 108 113 117 112 102 90 81 71 61 56 52 49
36 35 34 33 33 34 36 37 39 41 44 47 50 52 54 54 56 61 66 72 75 74 74 76 78 81 86 91 96 104 109 111 111 105 94 83 70 57 50 47 42 39 36
33 32 31 31 32 34 35 37 40 43 46 50 52 52 53 56 61 66 71 73 72 73 75 78 82 87 93 97 104 108 110 105 97 87 76 63 50 46 45 41 35 30 30
30 29 29 30 31 32 35 39 42 46 48 50 51 54 57 61 66 70 71 70 73 74 78 83 88 94 99 103 108 108 102 92 82 71 57 46 42 43 37 33 30 27 26
25 25 26 28 30 33 37 41 45 47 49 52 55 57 60 64 68 68 69 71 74 79 84 88 94 100 104 107 105 97 85 77 68 55 43 44 42 36 33 28 26 25 27
21 23 26 29 33 36 40 43 46 49 52 54 56 59 63 65 65 67 70 74 79 85 89 95 100 103 107 103 94 82 71 60 50 45 46 42 34 33 31 29 25 22 25
21 25 28 32 35 38 41 44 48 51 53 55 59 61 62 63 66 70 74 80 85 89 95 101 103 105 100 89 78 67 55 44 39 42 41 35 34 34 32 28 25 23 23
24 27 30 33 36 39 43 46 49 51 54 58 59 59 61 64 69 74 80 86 90 95 99 101 102 95 82 72 62 51 39 33 35 34 32 32 33 33 32 32 30 28 27
26 29 32 35 38 41 44 46 49 53 55 56 57 60 64 69 74 80 85 91 96 99 100 97 88 73 65 58 49 38 31 34 30 28 30 30 30 31 31 31 32 32 29
28 31 34 37 39 41 44 47 51 53 53 55 57 62 68 74 79 84 89 94 99 100 93 80 67 61 55 46 38 31 33 30 25 27 28 28 29 29 29 30 30 31 31
31 34 35 37 39 42 46 49 50 51 53 56 61 66 72 78 84 89 94 99 99 90 74 63 59 52 44 36 31 32 29 25 25 27 29 29 30 29 26 26 27 28 29
33 35 36 38 41 44 46 48 49 51 55 59 65 71 77 82 88 93 97 98 89 71 61 57 49 41 34 32 32 30 29 28 28 29 28 29 29 27 25 22 22 22 23
33 35 38 40 43 45 46 47 50 54 58 64 70 76 82 87 92 97 98 88 71 59 55 45 36 32 32 33 33 32 31 31 31 31 30 29 29 27 24 21 20 20 19
34 37 39 41 43 44 46 49 53 59 65 71 76 82 86 91 95 95 84 68 60 55 45 34 30 31 31 30 29 30 31 32 33 32 31 29 27 25 23 22 19 17 17
35 38 40 41 42 45 48 52 58 64 70 76 80 85 89 93 93 83 68 61 55 45 34 30 31 30 29 28 29 30 31 31 31 30 29 27 25 24 21 19 18 17 15
37 38 39 41 43 47 52 57 62 67 72 77 82 87 91 91 82 68 62 55 43 34 29 29 28 28 28 29 29 29 29 30 30 29 27 25 22 21 19 17 16 14 12
36 37 39 42 46 52 57 62 67 71 75 80 84 89 88 77 66 61 53 40 30 27 27 27 26 27 28 28 27 27 29 30 29 26 23 21 20 18 17 15 13 11 10
36 38 41 46 51 57 61 65 69 73 78 83 88 86 75 63 56 48 37 27 25 26 26 26 26 26 25 25 25 27 29 30 27 23 21 21 20 18 16 15 14 13 10
37 40 45 50 55 60 63 67 71 76 81 87 85 75 62 54 44 33 23 21 24 25 26 26 24 23 22 22 23 26 28 27 25 22 21 20 20 20 19 17 15 14 12
40 45 50 54 58 62 66 70 74 79 85 84 73 61 53 42 30 20 18 21 22 24 25 24 21 19 18 18 20 23 27 27 24 22 22 22 23 23 22 20 16 13 11
45 49 53 57 61 65 69 72 78 84 83 73 60 50 40 29 18 14 16 19 20 21 21 20 19 17 15 15 18 23 26 24 21 20 22 23 24 26 26 22 16 12 11
48 52 56 61 65 68 71 76 83 83 74 60 49 38 28 17 10 11 14 16 17 18 20 21 21 20 19 19 21 24 24 23 22 22 21 22 24 26 27 26 18 13 11
51 56 61 64 67 70 76 82 83 75 61 48 38 28 17 7 4 8 12 15 17 19 21 21 21 21 22 23 24 26 28 28 27 24 23 24 26 28 28 27 21 16 12
56 60 64 66 70 76 82 83 76 63 50 41 30 18 7 1 3 7 11 15 18 20 21 21 21 21 23 25 25 27 28 29 29 28 28 27 28 29 31 29 25 20 16
Wind_Direction
244 248 253 259 264 270 276 282 287 288 290 291 293 295 297 298 298 298 298 299 301 303 304 306 307 307 307 307 306 306 306 306 306 305 304 303 303 302 301 300 298 297 294
247 251 256 261 268 276 282 287 288 289 291 293 296 298 298 298 299 300 301 302 304 305 306 307 307 307 307 307 307 308 308 308 308 308 308 307 305 303 302 302 302 300 297
249 253 258 265 272 280 284 286 288 291 294 296 298 298 299 300 301 302 304 305 306 307 308 308 308 308 308 309 310 310 310 311 311 310 310 309 307 306 306 307 308 308 305
250 254 261 268 276 281 284 288 292 295 297 298 299 300 301 301 303 306 307 307 308 308 308 308 308 308 310 310 310 311 312 312 311 311 311 312 311 310 310 311 315 317 315
253 258 264 273 279 283 287 292 295 298 300 301 302 302 303 305 306 307 308 308 309 309 309 309 310 310 310 311 312 313 313 312 311 312 313 315 315 315 316 317 320 324 322
256 264 272 277 282 287 292 297 299 300 301 302 303 305 306 307 307 308 309 309 310 310 311 312 312 311 311 312 313 313 313 312 312 313 316 317 319 320 323 326 326 326 323
265 271 276 281 287 292 296 299 300 301 302 304 305 306 306 307 308 309 310 311 311 312 313 313 313 313 312 312 313 312 312 310 310 313 316 318 322 324 328 331 331 330 327
272 278 283 287 291 295 297 299 300 302 304 305 306 306 307 308 309 311 312 312 313 314 314 313 314 314 313 314 312 312 312 309 309 310 314 318 322 327 330 334 336 334 329
280 284 288 292 294 296 298 300 302 303 304 305 306 307 308 309 311 313 313 314 314 314 315 315 315 315 315 313 314 315 313 309 309 311 315 318 323 328 332 338 338 335 336
285 289 292 293 294 297 299 301 302 303 305 306 307 308 309 311 313 314 315 315 315 316 316 316 316 316 315 316 317 317 315 312 313 313 315 319 323 328 331 335 340 342 346
290 292 293 294 297 298 299 301 303 304 305 307 308 309 311 313 314 316 317 318 318 317 317 317 317 316 317 319 320 320 318 319 318 317 319 321 322 326 330 334 338 341 347
291 292 295 296 298 300 301 302 304 305 306 308 309 312 313 315 316 318 319 319 318 318 319 318 317 319 319 320 321 321 322 323 320 320 320 320 322 325 327 331 336 338 343
292 294 297 299 301 302 303 304 306 307 308 309 311 313 315 317 318 319 319 320 320 320 319 318 320 320 319 320 321 323 324 321 319 321 321 320 319 319 320 324 331 337 339
295 298 300 301 303 304 305 306 307 308 310 312 314 317 318 319 319 320 320 321 322 321 319 321 321 320 321 322 324 325 324 322 320 320 318 318 319 318 317 317 323 335 337
297 299 301 303 305 306 307 307 309 311 313 316 318 319 320 320 321 322 323 324 323 322 323 325 324 324 325 325 324 325 326 325 324 324 324 323 324 322 320 318 320 328 334
299 301 304 306 307 307 309 311 314 316 318 320 321 321 321 321 323 325 326 324 323 324 326 327 325 326 327 327 327 327 327 326 324 323 320 319 320 322 321 319 319 321 328
302 304 306 306 307 310 313 316 317 319 320 321 321 321 322 323 325 326 325 323 323 324 326 327 327 329 331 332 331 329 328 329 329 328 323 318 318 321 324 323 322 322 326
304 306 306 308 311 315 317 318 319 319 320 320 321 322 324 326 326 325 324 324 323 325 328 329 330 333 334 335 335 336 336 335 335 335 334 330 326 323 325 326 323 322 327
306 307 309 313 316 318 318 319 320 320 321 322 323 324 326 326 325 326 327 327 327 329 331 331 333 334 337 341 345 345 345 342 338 337 340 342 342 339 337 335 330 326 329
308 311 315 317 318 318 319 320 321 321 322 324 325 326 326 325 325 327 329 331 332 333 335 335 335 337 343 349 353 354 352 353 354 354 354 354 352 349 346 343 341 339 337
313 315 317 318 319 320 321 322 322 323 325 326 326 327 326 326 327 329 332 335 337 339 339 340 342 345 351 357 1 3 3 2 3 5 3 359 354 350 345 341 337 339 340
315 317 318 320 321 321 322 323 324 325 326 327 327 327 327 329 331 335 341 344 346 347 349 352 355 358 1 2 3 3 3 4 7 10 10 9 7 4 359 352 345 342 343
318 320 321 322 323 323 324 325 326 326 326 327 326 327 329 331 335 345 353 356 359 6 15 21 22 19 11 3 357 356 358 1 6 9 10 10 10 10 7 1 356 351 351
321 323 323 323 324 324 325 326 326 326 326 325 325 328 330 332 344 2 9 17 24 31 36 37 34 29 21 12 6 7 10 12 12 11 9 6 6 7 9 9 11 11 11
323 324 324 324 325 325 326 326 326 326 325 324 326 327 325 330 12 26 36 39 42 42 42 41 39 36 33 31 31 32 33 32 28 21 16 13 13 14 17 19 23 24 26
325 325 325 325 326 326 326 326 327 326 324 323 323 319 307 158 85 69 62 58 54 51 48 44 43 44 44 42 41 39 37 36 35 32 28 25 25 27 30 30 29 30 34
Height
5692 5693 5694 5694 5693 5692 5692 5691 5689 5686 5683 5679 5675 5670 5665 5660 5654 5648 5642 5635 5628 5619 5610 5601 5590 5580 5570 5560 5550 5538 5525 5511 5504 5506 5488 5471 5451 5430 5408 5387 5366 5347 5332
5685 5685 5686 5686 5686 5685 5684 5683 5680 5677 5673 5669 5664 5659 5654 5648 5642 5636 5629 5621 5612 5604 5594 5584 5574 5563 5553 5541 5529 5516 5502 5486 5469 5462 5455 5434 5414 5393 5376 5359 5341 5321 5303
5678 5678 5679 5679 5678 5678 5676 5674 5671 5667 5664 5659 5654 5649 5643 5636 5630 5623 5615 5606 5598 5588 5578 5567 5557 5546 5534 5521 5507 5492 5477 5460 5439 5421 5412 5399 5383 5365 5352 5338 5321 5305 5288
5671 5672 5672 5672 5671 5670 5668 5665 5662 5658 5654 5649 5643 5637 5631 5624 5617 5609 5601 5592 5582 5571 5561 5551 5539 5527 5514 5500 5484 5467 5449 5430 5412 5395 5381 5370 5358 5344 5333 5322 5310 5295 5281
5665 5666 5666 5665 5664 5662 5659 5656 5653 5649 5644 5638 5631 5625 5618 5611 5603 5596 5587 5577 5567 5557 5546 5534 5521 5506 5492 5476 5458 5440 5421 5403 5387 5375 5364 5352 5340 5330 5320 5309 5299 5289 5276
5659 5659 5659 5657 5656 5654 5650 5647 5643 5638 5632 5627 5620 5613 5606 5598 5590 5581 5572 5562 5552 5541 5529 5517 5502 5486 5470 5452 5433 5414 5394 5377 5365 5357 5349 5339 5330 5319 5309 5300 5290 5282 5275
5653 5653 5651 5650 5648 5645 5642 5638 5633 5628 5622 5615 5608 5601 5593 5585 5576 5566 5557 5547 5536 5523 5510 5496 5481 5463 5444 5428 5410 5392 5376 5360 5347 5341 5336 5329 5319 5310 5302 5294 5285 5276 5268
5647 5645 5644 5642 5640 5636 5632 5628 5623 5617 5611 5604 5596 5589 5580 5571 5563 5553 5543 5531 5519 5505 5489 5473 5456 5438 5419 5401 5386 5374 5360 5346 5337 5331 5326 5318 5311 5303 5295 5287 5280 5274 5266
5639 5638 5637 5635 5631 5627 5623 5618 5612 5606 5600 5592 5584 5576 5568 5559 5549 5539 5528 5515 5501 5486 5469 5449 5431 5414 5397 5379 5366 5355 5344 5335 5328 5323 5316 5310 5304 5297 5289 5283 5277 5270 5265
5633 5632 5630 5626 5622 5618 5613 5608 5602 5596 5588 5581 5571 5563 5555 5545 5535 5524 5511 5498 5483 5468 5449 5429 5409 5390 5374 5361 5350 5341 5333 5327 5322 5316 5311 5305 5298 5291 5284 5277 5271 5265 5259
5627 5624 5621 5617 5613 5609 5604 5598 5592 5585 5577 5569 5561 5551 5541 5530 5519 5507 5492 5477 5460 5443 5425 5406 5387 5371 5358 5348 5339 5331 5325 5320 5315 5310 5306 5300 5294 5288 5281 5274 5267 5260 5255
5619 5616 5613 5609 5604 5599 5594 5588 5581 5574 5566 5558 5548 5538 5526 5514 5502 5489 5473 5456 5437 5419 5401 5383 5370 5359 5348 5339 5332 5325 5319 5313 5309 5305 5300 5295 5289 5284 5278 5271 5265 5258 5251
5611 5608 5604 5600 5595 5590 5584 5577 5570 5562 5554 5545 5536 5525 5514 5500 5486 5471 5454 5436 5417 5398 5381 5367 5357 5347 5339 5332 5326 5320 5314 5309 5304 5299 5294 5288 5283 5278 5274 5269 5262 5256 5249
5603 5599 5595 5591 5585 5579 5572 5565 5558 5550 5542 5533 5523 5512 5499 5485 5470 5453 5435 5417 5398 5382 5369 5357 5346 5338 5332 5326 5321 5315 5308 5303 5298 5293 5288 5282 5277 5272 5268 5264 5260 5255 5249
5595 5591 5586 5581 5575 5569 5562 5554 5546 5538 5529 5520 5508 5496 5482 5467 5450 5433 5414 5395 5381 5370 5359 5348 5340 5333 5327 5321 5314 5308 5303 5297 5291 5286 5281 5276 5271 5266 5262 5258 5254 5250 5247
5586 5582 5577 5571 5565 5558 5551 5543 5534 5525 5514 5502 5490 5476 5460 5445 5429 5411 5393 5379 5369 5359 5350 5342 5335 5329 5323 5317 5310 5304 5297 5292 5286 5280 5275 5271 5267 5262 5257 5253 5249 5247 5243
5578 5573 5568 5562 5555 5549 5542 5534 5524 5512 5499 5486 5473 5457 5441 5425 5409 5393 5380 5368 5358 5350 5342 5337 5330 5324 5318 5312 5306 5300 5294 5287 5281 5275 5270 5265 5261 5257 5253 5249 5245 5242 5240
5569 5564 5558 5552 5546 5539 5531 5521 5511 5500 5488 5473 5457 5442 5425 5407 5392 5380 5370 5358 5348 5341 5337 5332 5326 5320 5314 5309 5302 5296 5290 5284 5277 5271 5265 5261 5256 5252 5249 5245 5242 5239 5237
5560 5554 5548 5542 5535 5527 5518 5508 5496 5484 5472 5458 5444 5427 5409 5392 5379 5369 5359 5350 5343 5338 5333 5328 5323 5317 5311 5306 5300 5294 5288 5281 5274 5268 5263 5258 5254 5250 5246 5243 5240 5237 5235
5551 5545 5538 5532 5524 5515 5505 5494 5483 5470 5456 5442 5427 5412 5397 5384 5372 5361 5353 5346 5341 5336 5330 5325 5320 5314 5309 5304 5299 5293 5287 5279 5272 5266 5262 5258 5254 5250 5246 5242 5238 5235 5233
5541 5535 5529 5521 5512 5502 5492 5480 5468 5455 5441 5427 5411 5396 5384 5374 5365 5356 5350 5345 5340 5334 5328 5323 5317 5313 5308 5304 5299 5293 5287 5280 5274 5268 5264 5259 5254 5250 5245 5241 5237 5234 5231
5532 5525 5518 5509 5500 5489 5478 5467 5454 5441 5427 5412 5397 5384 5374 5365 5358 5352 5348 5344 5339 5333 5327 5321 5316 5313 5309 5305 5300 5294 5288 5282 5276 5271 5266 5261 5255 5250 5244 5240 5235 5232 5230
5522 5515 5506 5497 5487 5476 5464 5452 5439 5426 5412 5398 5386 5376 5367 5361 5356 5352 5348 5343 5338 5333 5327 5322 5318 5314 5310 5306 5302 5296 5290 5284 5279 5274 5268 5262 5257 5251 5245 5240 5235 5232 5230
5511 5504 5495 5485 5474 5463 5451 5438 5424 5410 5397 5386 5376 5368 5362 5358 5355 5352 5348 5344 5339 5335 5330 5326 5322 5317 5313 5308 5303 5298 5292 5286 5281 5275 5270 5265 5259 5253 5247 5240 5235 5232 5230
5501 5492 5482 5472 5461 5449 5437 5423 5409 5395 5383 5373 5367 5362 5358 5355 5354 5352 5349 5345 5342 5338 5334 5329 5325 5321 5316 5312 5307 5302 5296 5290 5284 5278 5273 5267 5261 5255 5249 5243 5238 5235 5232
5489 5479 5469 5459 5447 5435 5422 5408 5393 5380 5370 5363 5358 5355 5354 5353 5353 5352 5350 5348 5344 5341 5337 5333 5329 5325 5321 5317 5312 5307 5301 5295 5290 5284 5278 5273 5267 5261 5254 5248 5243 5239 5236